This is the latest recevied weather packets stored in our database for station/object KC0AFB. If no packets are shown the sender has not sent any weather packets the latest 1 day(s).
| Time | Temp. | Humidity | Pressure | Rain* | Wind** | Luminosity | Snow |
|---|---|---|---|---|---|---|---|
| 1778032565 | 2.22° C | 56% | 1016.2 hPa | 0 mm | - | 2 W/m² | - |
| 1778031959 | 2.22° C | 55% | 1015.7 hPa | 0 mm | - | 6 W/m² | - |
| 1778031654 | 2.22° C | 55% | 1015.8 hPa | 0 mm | - | 11 W/m² | - |
| 1778031353 | 2.78° C | 54% | 1015.8 hPa | 0 mm | - | 14 W/m² | - |
| 1778030745 | 3.33° C | 53% | 1015.8 hPa | 0 mm | - | 18 W/m² | - |
| 1778030141 | 3.89° C | 51% | 1015.6 hPa | 0 mm | - | 29 W/m² | - |
| 1778029836 | 3.89° C | 51% | 1015.4 hPa | 0 mm | - | 37 W/m² | - |
| 1778029227 | 4.44° C | 49% | 1015.5 hPa | 0 mm | - | 47 W/m² | - |
| 1778028924 | 4.44° C | 50% | 1015.6 hPa | 0 mm | - | 52 W/m² | - |
| 1778028620 | 4.44° C | 51% | 1015.5 hPa | 0 mm | - | 64 W/m² | - |
| 1778028318 | 3.89° C | 50% | 1015.6 hPa | 0 mm | - | 59 W/m² | - |
| 1778027711 | 3.89° C | 51% | 1015.5 hPa | 0 mm | - | 57 W/m² | - |
| 1778027407 | 4.44° C | 50% | 1015.7 hPa | 0 mm | - | 59 W/m² | - |
| 1778026496 | 5° C | 49% | 1015.6 hPa | 0 mm | - | 95 W/m² | - |
| 1778026193 | 5° C | 49% | 1015.2 hPa | 0 mm | - | 99 W/m² | - |
| 1778025890 | 5° C | 49% | 1015.3 hPa | 0 mm | - | 104 W/m² | - |
| 1778023469 | 5° C | 48% | 1015.5 hPa | 0 mm | - | 142 W/m² | - |
| 1778021347 | 5° C | 47% | 1015 hPa | 0 mm | - | 150 W/m² | - |
| 1778018618 | 5° C | 50% | 1015 hPa | 0 mm | - | 152 W/m² | - |
| 1778018014 | 5.56° C | 50% | 1015.1 hPa | 0 mm | - | 215 W/m² | - |
| 1778017712 | 5.56° C | 49% | 1015 hPa | 0 mm | - | 200 W/m² | - |
| 1778017106 | 5.56° C | 47% | 1015 hPa | 0 mm | - | 217 W/m² | - |
| 1778016197 | 5.56° C | 49% | 1015.1 hPa | 0 mm | - | 233 W/m² | - |
| 1778015591 | 5° C | 49% | 1015.1 hPa | 0 mm | - | 207 W/m² | - |
| 1778014681 | 5.56° C | 49% | 1015 hPa | 0 mm | - | 187 W/m² | - |
* Rain latest hour (hover to see other rain measurements)
** Current wind speed in m/s (hover to see current wind gust speed)